Regional Weather Roundup
Issued by NWS Cleveland, OH

Home | Current Version | Previous Version | Text Only | Print | Product List | Glossary Off
Versions: 1 2 3 4 5 6 7 8 9 10 11 12 13 14 15 16 17 18 19 20 21 22 23 24 25 26 27 28 29 30 31 32 33 34 35 36 37 38 39 40 41 42 43 44 45 46 47 48 49 50

000
ASUS41 KCLE 251700
RWRCLE
OHIO REGIONAL WEATHER ROUNDUP
NATIONAL WEATHER SERVICE WILMINGTON, OH
100 PM EDT FRI JUL 25 2014

NOTE: "FAIR" INDICATES FEW OR NO CLOUDS BELOW 12,000 FEET WITH NO
SIGNIFICANT WEATHER AND/OR OBSTRUCTIONS TO VISIBILITY.

OHZ001>008-015>018-024>027-034-035-043-044-251800-
   NORTHWEST OHIO

CITY           SKY/WX    TMP DP  RH WIND       PRES   REMARKS
DEFIANCE       PTSUNNY   75  53  46 SW12      30.07F
FINDLAY        PTSUNNY   76  52  43 W9        30.08F
TOLEDO EXPRESS PTSUNNY   73  53  49 S8        30.06F
TOLEDO METCALF PTSUNNY   74  52  46 S10       30.07F
LIMA           CLOUDY    73  53  49 W7        30.10S
$$

OHZ009>014-019>023-028>033-038-089-251800-
   NORTHEAST OHIO

CITY           SKY/WX    TMP DP  RH WIND       PRES   REMARKS
CLE-HOPKINS    PTSUNNY   74  52  46 W6        30.09F
CLE-LAKEFRONT  SUNNY     72  53  51 NW9       30.06F
CUY CO. ARPT   PTSUNNY   72  54  53 CALM      30.08F
LORAIN-ELYRIA  PTSUNNY   75  50  41 VRB5      30.08F
ASHTABULA      SUNNY     72  50  45 W5        30.08F
AKRON-CANTON   MOSUNNY   75  49  39 VRB6      30.08F
WOOSTER        NOT AVBL
MANSFIELD      SUNNY     72  49  44 W7        30.09F
YOUNGSTOWN     MOSUNNY   72  49  44 W5        30.07F
$$

OHZ042-051>053-060>062-070>072-077>081-251800-
  SOUTHWEST OHIO

CITY           SKY/WX    TMP DP  RH WIND       PRES   REMARKS
CINC-COVINGTON MOSUNNY   75  54  47 W6        30.09F
CINC-LUNKEN    MOSUNNY   76  55  48 VRB3      30.09F
HAMILTON       SUNNY     76  56  49 W8        30.11S
DAYTON         NOT AVBL
WRIGHT-PAT AFB PTSUNNY   71  55  55 VRB2      30.11S
DAYTON GENERAL MOSUNNY   73  55  53 W9        30.10F
WILMINGTON     PTSUNNY   74  54  49 SW8       30.10S
$$

OHZ036-037-039>041-045>050-054>059-063>069-073>076-082>088-251800-
  CENTRAL AND SOUTHEAST OHIO

CITY           SKY/WX    TMP DP  RH WIND       PRES   REMARKS
COLUMBUS       PTSUNNY   75  51  43 VRB5      30.08F
OSU AIRPORT    PTSUNNY   73  54  51 W9        30.09F
BOLTON FIELD   PTSUNNY   72  55  56 S6        30.10
RICKENBACK AFB NOT AVBL
NEWARK         MOSUNNY   71  54  54 SW7       30.08F
MARION         PTSUNNY   72  49  44 CALM      30.09F
LANCASTER      MOSUNNY   74  55  51 W7        30.09F
ZANESVILLE     PTSUNNY   73  55  53 W8        30.08F
NEW PHILLY     SUNNY     73  54  51 CALM      30.08F
$$


USA.gov is the U.S. government's official web portal to all federal, state and local government web resources and services.